• Join FlightAware (Why Join?)
  • Login
  • US Flag GB Flag 
12:21 EDT


 

Airport Tracker/Info


-or-


 

Live Flight TrackerFlight Track Log ✈ QFA865 ✈ 06-Oct-2013 ✈ YBCG / OOL - YSSY / SYD

Flight Track Log - Related Links

Times and Time Zones

All times are in EDT time to prevent confusion due to time zone crossing. See the QFA865 flight status page for this flight to view local times or setup timezone preferences in your user account.

Time Position Orientation Groundspeed Altitude Reporting Facility
EDT Latitude Longitude Course Direction KTS MPH feet Rate Location/Type
03:57 -28.1481 153.4960 North 148 170 1,200  Level Aus ATC (RADAR)
03:58 -28.1314 153.4977 North 150 173 1,900 1,560 Climbing Aus ATC (RADAR)
03:58 -28.1224 153.5224 68° East 194 223 2,500 2,340 Climbing Aus ATC (RADAR)
03:58 -28.1166 153.5473 74° East 231 266 3,700 3,720 Climbing FlightAware ADS-B (EKCH / CPH)
03:59 -28.1156 153.5536 80° East 236 272 4,200 3,060 Climbing FlightAware ADS-B (EKCH / CPH)
03:59 -28.1245 153.5823 109° East 254 292 5,200 1,920 Climbing FlightAware ADS-B (EKCH / CPH)
03:59 -28.1332 153.5901 141° Southeast 268 308 5,300 1,500 Climbing FlightAware ADS-B (EKCH / CPH)
03:59 -28.1412 153.5941 156° South 280 322 5,700 2,040 Climbing FlightAware ADS-B (EKCH / CPH)
04:00 -28.1860 153.6150 158° South 320 368 6,700 1,560 Climbing FlightAware
04:00 -28.2141 153.6244 164° South 342 394 7,000 1,320 Climbing FlightAware ADS-B (EKCH / CPH)
04:00 -28.2249 153.6246 179° South 355 409 7,300 2,820 Climbing FlightAware ADS-B (EKCH / CPH)
04:00 -28.2470 153.6194 192° South 351 404 8,000 3,240 Climbing FlightAware ADS-B (EKCH / CPH)
04:01 -28.2613 153.6117 205° Southwest 350 403 8,500 3,600 Climbing FlightAware ADS-B (EKCH / CPH)
04:01 -28.2669 153.6074 214° Southwest 346 398 8,900 3,780 Climbing FlightAware ADS-B (EKCH / CPH)
04:01 -28.2828 153.5894 225° Southwest 342 394 9,700 3,540 Climbing FlightAware ADS-B (EKCH / CPH)
04:01 -28.3093 153.5430 237° Southwest 346 398 11,500 3,300 Climbing FlightAware ADS-B (EKCH / CPH)
04:02 -28.3362 153.4958 237° Southwest 355 409 13,000 3,000 Climbing FlightAware ADS-B (EKCH / CPH)
04:02 -28.3635 153.4480 237° Southwest 364 419 14,500 2,760 Climbing FlightAware ADS-B (EKCH / CPH)
04:03 -28.3910 153.3994 237° Southwest 371 427 15,800 1,500 Climbing FlightAware ADS-B (EKCH / CPH)
04:03 -28.4179 153.3520 237° Southwest 370 426 16,000 180 Climbing FlightAware ADS-B (EKCH / CPH)
04:04 -28.4449 153.3044 237° Southwest 369 425 16,000  Level FlightAware ADS-B (EKCH / CPH)
04:04 -28.4736 153.2539 237° Southwest 366 421 16,000 1,080 Level FlightAware ADS-B (EKCH / CPH)
04:05 -28.5091 153.1909 237° Southwest 371 427 17,300 2,460 Climbing FlightAware ADS-B (EKCH / CPH)
04:06 -28.5488 153.1207 237° Southwest 374 430 19,300 2,460 Climbing FlightAware ADS-B (EKCH / CPH)
04:06 -28.5855 153.0554 237° Southwest 387 445 20,700 1,980 Climbing FlightAware ADS-B (EKCH / CPH)
04:07 -28.6256 152.9843 237° Southwest 396 456 22,000 1,920 Climbing FlightAware ADS-B (EKCH / CPH)
04:08 -28.6562 152.9300 237° Southwest 404 465 23,000 1,980 Climbing FlightAware ADS-B (EKCH / CPH)
04:08 -28.6657 152.9129 238° Southwest 407 468 23,300 1,860 Climbing FlightAware ADS-B (EKCH / CPH)
04:08 -28.6756 152.8954 237° Southwest 408 470 23,600 2,100 Climbing FlightAware ADS-B (EKCH / CPH)
04:08 -28.7058 152.8416 237° Southwest 408 470 24,700 2,220 Climbing FlightAware ADS-B (EKCH / CPH)
04:09 -28.7156 152.8243 237° Southwest 407 468 25,100 2,100 Climbing FlightAware ADS-B (EKCH / CPH)
04:09 -28.7255 152.8066 238° Southwest 407 468 25,400 1,980 Climbing FlightAware ADS-B (EKCH / CPH)
04:09 -28.7372 152.7856 237° Southwest 406 467 25,800 2,100 Climbing FlightAware ADS-B (EKCH / CPH)
04:09 -28.7570 152.7501 238° Southwest 406 467 26,500 2,100 Climbing FlightAware ADS-B (EKCH / CPH)
04:10 -28.7761 152.7159 238° Southwest 404 465 27,200 2,520 Climbing FlightAware ADS-B (EKCH / CPH)
04:10 -28.8065 152.6614 238° Southwest 392 451 28,600 2,520 Climbing FlightAware ADS-B (EKCH / CPH)
04:11 -28.8460 152.5988 234° Southwest 388 447 30,100 2,400 Climbing FlightAware ADS-B (NZNE)
04:11 -28.8572 152.5878 221° Southwest 392 451 30,600 2,400 Climbing FlightAware ADS-B (EKCH / CPH)
04:11 -28.8746 152.5749 213° Southwest 396 456 31,000 2,100 Climbing FlightAware ADS-B (EKCH / CPH)
04:12 -28.9304 152.5486 202° Southwest 392 451 32,000 960 Climbing FlightAware ADS-B (EKCH / CPH)
04:12 -28.9808 152.5258 202° Southwest 389 448 32,000  Level FlightAware ADS-B (EKCH / CPH)
04:13 -29.0463 152.4962 202° Southwest 390 449 32,000  Level FlightAware ADS-B (EKCH / CPH)
04:13 -29.0943 152.4746 201° Southwest 389 448 32,000  Level FlightAware ADS-B (EKCH / CPH)
04:14 -29.1477 152.4505 201° Southwest 390 449 32,000  Level FlightAware ADS-B (EKCH / CPH)
04:14 -29.2152 152.4200 202° Southwest 391 450 32,000  Level FlightAware ADS-B (EKCH / CPH)
04:15 -29.2665 152.3966 202° Southwest 392 451 32,000  Level FlightAware ADS-B (EKCH / CPH)
04:15 -29.3180 152.3730 202° Southwest 391 450 32,000  Level FlightAware
04:16 -29.3317 152.3669 201° Southwest 392 451 32,000  Level FlightAware ADS-B (EKCH / CPH)
04:16 -29.3846 152.3427 202° Southwest 392 451 32,000  Level FlightAware ADS-B (EKCH / CPH)
04:17 -29.4347 152.3199 202° Southwest 391 450 32,000  Level FlightAware ADS-B (EKCH / CPH)
04:17 -29.5020 152.2894 202° Southwest 391 450 32,000  Level FlightAware ADS-B (EKCH / CPH)
04:18 -29.5520 152.2664 202° Southwest 390 449 32,000  Level FlightAware ADS-B (EKCH / CPH)
04:18 -29.5996 152.2447 202° Southwest 391 450 32,000 -120 Level FlightAware ADS-B (EKCH / CPH)
04:19 -29.6552 152.2195 202° Southwest 388 447 31,900  Descending Aus ATC (RADAR)
04:19 -29.6662 152.2144 202° Southwest 391 450 32,000 120 Climbing FlightAware ADS-B (EKCH / CPH)
04:19 -29.7187 152.1903 202° Southwest 394 453 32,000  Level FlightAware ADS-B (EKCH / CPH)
04:20 -29.7651 152.1691 202° Southwest 394 453 32,000  Level FlightAware ADS-B (EKCH / CPH)
04:21 -29.8550 152.1280 202° Southwest 393 452 32,000  Level FlightAware
04:21 -29.9070 152.1050 202° Southwest 393 452 32,000 -180 Level FlightAware
04:21 -29.9254 152.0951 202° Southwest 394 453 31,900 -180 Descending Aus ATC (RADAR)
04:22 -29.9850 152.0677 202° Southwest 395 455 31,900 120 Level Aus ATC (RADAR)
04:22 -29.9590 152.0820 202° Southwest 393 452 32,000 120 Climbing FlightAware
04:23 -30.0120 152.0590 201° Southwest 393 452 32,000 -120 Level FlightAware
04:23 -30.1040 152.0121 201° Southwest 395 455 31,900  Descending Aus ATC (RADAR)
04:23 -30.0640 152.0360 201° Southwest 393 452 32,000  Climbing FlightAware
04:24 -30.1636 151.9848 201° Southwest 396 456 31,900  Descending Aus ATC (RADAR)
04:24 -30.1160 152.0130 201° Southwest 393 452 32,000 120 Climbing FlightAware
04:24 -30.1700 151.9890 201° Southwest 393 452 32,000  Level FlightAware
04:25 -30.2220 151.9660 201° Southwest 393 452 32,000  Level FlightAware
04:26 -30.2740 151.9430 201° Southwest 393 452 32,000 -120 Level FlightAware
04:26 -30.4084 151.8711 201° Southwest 392 451 31,900  Descending Aus ATC (RADAR)
04:26 -30.3260 151.9200 201° Southwest 393 452 32,000 60 Climbing FlightAware
04:27 -30.4770 151.8400 205° Southwest 32,000  Level FlightAware
04:27 -30.5320 151.8140 202° Southwest 382 440 32,000  Level FlightAware
04:28 -30.5930 151.7860 202° Southwest 382 440 32,000 -180 Level FlightAware
04:28 -30.6013 151.7815 202° Southwest 390 449 31,900  Descending Aus ATC (RADAR)
04:29 -30.6540 151.7570 202° Southwest 382 440 32,000  Climbing FlightAware
04:29 -30.6596 151.7543 202° Southwest 388 447 31,900  Descending Aus ATC (RADAR)
04:29 -30.7130 151.7300 201° Southwest 381 438 32,000 60 Climbing FlightAware
04:30 -30.7640 151.7060 202° Southwest 379 436 32,000  Level FlightAware
04:30 -30.8190 151.6800 202° Southwest 379 436 32,000  Level FlightAware
04:31 -30.8690 151.6570 202° Southwest 379 436 32,000  Level FlightAware
04:32 -30.9190 151.6330 202° Southwest 379 436 32,000  Level FlightAware
04:32 -31.0040 151.5940 201° Southwest 807 929 32,000 -120 Level FlightAware
04:33 -31.0887 151.5532 201° Southwest 386 444 31,900 -120 Descending Aus ATC (RADAR)
04:33 -31.1133 151.5411 203° Southwest 386 444 31,900 300 Level Aus ATC (RADAR)
04:33 -31.1110 151.5430 203° Southwest 385 443 32,000 120 Climbing FlightAware
04:34 -31.1690 151.5160 202° Southwest 387 445 32,000  Level FlightAware
04:34 -31.2280 151.4880 202° Southwest 386 444 32,000  Level FlightAware
04:35 -31.2910 151.4580 202° Southwest 388 447 32,000  Level FlightAware
04:36 -31.3490 151.4300 202° Southwest 380 437 32,000  Level FlightAware
04:36 -31.4070 151.4030 202° Southwest 381 438 32,000  Level FlightAware
04:37 -31.4660 151.3770 201° Southwest 381 438 32,000  Level FlightAware
04:37 -31.5240 151.3510 201° Southwest 380 437 32,000  Level FlightAware
04:38 -31.5820 151.3250 201° Southwest 381 438 32,000  Level FlightAware
04:39 -31.6420 151.2980 201° Southwest 393 452 32,000  Level FlightAware
04:39 -31.7010 151.2720 201° Southwest 396 456 32,000  Level FlightAware
04:40 -31.7620 151.2440 201° Southwest 399 459 32,000  Level FlightAware
04:40 -31.8240 151.2160 201° Southwest 399 459 32,000  Level FlightAware
04:41 -31.8830 151.1900 201° Southwest 400 460 32,000  Level FlightAware
04:41 -31.9450 151.1620 201° Southwest 399 459 32,000  Level FlightAware
04:42 -32.0050 151.1350 201° Southwest 398 458 32,000  Level FlightAware
04:43 -32.0660 151.1080 201° Southwest 396 456 32,000  Level FlightAware
04:43 -32.1260 151.0810 201° Southwest 396 456 32,000  Level FlightAware
04:44 -32.1850 151.0540 201° Southwest 396 456 32,000  Level FlightAware
04:44 -32.2420 151.0290 200° South 399 459 32,000  Level FlightAware
04:45 -32.3070 150.9990 201° Southwest 396 456 32,000 -300 Level FlightAware
04:46 -32.3714 150.9701 201° Southwest 400 460 31,700 -180 Descending Aus ATC (RADAR)
04:46 -32.3690 150.9710 201° Southwest 394 453 31,900 -1,620 Climbing FlightAware
04:46 -32.4280 150.9450 201° Southwest 379 436 30,800 -2,400 Descending FlightAware
04:46 -32.4307 150.9432 201° Southwest 390 449 30,500 -2,040 Descending Aus ATC (RADAR)
04:47 -32.4870 150.9210 199° South 380 437 29,600 -1,740 Descending FlightAware
04:47 -32.5120 150.9180 186° South 388 447 29,100 -2,280 Descending FlightAware
04:47 -32.5510 150.9210 176° South 410 472 28,300 -3,000 Descending FlightAware
04:48 -32.6140 150.9320 172° South 423 487 26,300 -3,180 Descending FlightAware
04:48 -32.6900 150.9460 171° South 437 503 24,600 -2,340 Descending FlightAware
04:49 -32.7630 150.9593 171° South 439 505 23,600 -1,380 Descending Aus ATC (RADAR)
04:49 -32.7620 150.9590 171° South 442 509 23,800 -1,080 Climbing FlightAware
04:50 -32.8352 150.9725 171° South 441 507 23,000 -1,080 Descending Aus ATC (RADAR)
04:50 -32.8330 150.9720 171° South 441 507 23,200 -720 Climbing FlightAware
04:50 -32.9060 150.9850 171° South 435 501 22,600 -1,140 Descending FlightAware
04:51 -32.9760 150.9970 172° South 441 507 21,900 -1,140 Descending FlightAware
04:51 -33.0570 151.0120 171° South 426 490 21,200 -1,620 Descending FlightAware
04:52 -33.1156 151.0222 171° South 419 482 20,100 -1,740 Descending Aus ATC (RADAR)
04:52 -33.1240 151.0240 171° South 420 483 20,200 -2,100 Climbing FlightAware
04:53 -33.1920 151.0360 172° South 410 472 18,700 -2,640 Descending FlightAware
04:53 -33.2099 151.0390 172° South 407 468 18,300 -3,000 Descending FlightAware ADS-B
04:54 -33.2857 151.0528 171° South 408 470 16,200 -3,060 Descending FlightAware ADS-B
04:54 -33.3528 151.0657 171° South 409 471 14,400 -2,820 Descending Aus ATC (RADAR)
04:54 -33.3614 151.0677 171° South 405 466 14,400 -2,040 Level FlightAware ADS-B
04:55 -33.4186 151.0790 171° South 394 453 13,200 -2,160 Descending FlightAware ADS-B
04:55 -33.4881 151.0923 171° South 374 430 11,900 -2,100 Descending FlightAware ADS-B
04:56 -33.5391 151.1018 171° South 366 421 10,800 -2,400 Descending FlightAware ADS-B
04:56 -33.5715 151.1080 171° South 366 421 9,900 -2,820 Descending FlightAware ADS-B
04:57 -33.6150 151.1166 171° South 366 421 8,700 -2,520 Descending FlightAware ADS-B
04:57 -33.6308 151.1227 162° South 367 422 8,400 -1,320 Descending FlightAware ADS-B
04:57 -33.6614 151.1424 152° Southeast 355 409 8,000 -1,200 Descending FlightAware ADS-B
04:57 -33.6912 151.1620 151° Southeast 341 392 7,600 -1,080 Descending FlightAware ADS-B
04:58 -33.7177 151.1786 152° Southeast 330 380 7,300 -900 Descending FlightAware ADS-B
04:58 -33.7396 151.1919 153° Southeast 324 373 7,100 -480 Descending FlightAware ADS-B (YRAY)
04:58 -33.7662 151.2078 154° Southeast 323 372 7,000 -480 Descending FlightAware ADS-B
04:59 -33.7960 151.2255 154° Southeast 323 372 6,800 -660 Descending FlightAware ADS-B
04:59 -33.8193 151.2394 154° Southeast 318 366 6,600 -660 Descending FlightAware ADS-B
04:59 -33.8449 151.2550 153° Southeast 304 350 6,400 -600 Descending FlightAware ADS-B
05:00 -33.8752 151.2734 153° Southeast 288 331 6,200 -300 Descending FlightAware ADS-B
05:00 -33.8986 151.2874 154° Southeast 282 325 6,200  Level FlightAware ADS-B
05:00 -33.9217 151.3012 154° Southeast 277 319 6,200  Level FlightAware ADS-B
05:01 -33.9320 151.3074 153° Southeast 272 313 6,200  Level FlightAware ADS-B (YRAY)
05:01 -33.9575 151.3211 156° South 283 326 6,200 -180 Level FlightAware ADS-B
05:01 -33.9785 151.3284 164° South 274 315 6,100 -480 Descending FlightAware ADS-B
05:02 -34.0063 151.3359 167° South 262 302 5,900 -840 Descending FlightAware ADS-B
05:02 -34.0422 151.3456 167° South 250 288 5,400 -960 Descending FlightAware ADS-B
05:02 -34.0642 151.3514 168° South 247 284 5,100 -1,140 Descending FlightAware ADS-B
05:03 -34.0856 151.3557 171° South 238 274 4,700 -1,200 Descending FlightAware ADS-B
05:03 -34.0968 151.3524 194° South 225 259 4,500 -1,140 Descending FlightAware ADS-B
05:03 -34.1049 151.3450 217° Southwest 219 252 4,300 -900 Descending FlightAware ADS-B
05:03 -34.1120 151.3271 245° Southwest 212 244 4,100 -540 Descending FlightAware ADS-B
05:04 -34.1167 151.3054 255° West 201 231 4,000 -480 Descending FlightAware ADS-B
05:04 -34.1187 151.2960 255° West 197 227 3,900 -600 Descending FlightAware ADS-B
05:04 -34.1202 151.2888 255° West 194 223 3,800 -960 Descending FlightAware ADS-B
05:04 -34.1209 151.2777 266° West 198 228 3,600 -1,020 Descending FlightAware ADS-B
05:04 -34.1192 151.2706 286° West 205 236 3,600 -1,200 Level FlightAware ADS-B
05:05 -34.1007 151.2496 317° Northwest 215 247 3,000 -1,500 Descending FlightAware ADS-B
05:05 -34.0886 151.2393 325° Northwest 215 247 2,600 -1,500 Descending FlightAware ADS-B (YRAY)
05:05 -34.0749 151.2279 326° Northwest 199 229 2,200 -1,020 Descending FlightAware ADS-B
05:06 -34.0530 151.2150 334° Northwest 190 219 1,800 -960 Descending FlightAware
05:06 -34.0340 151.2103 348° North 169 194 1,400 -960 Descending FlightAware ADS-B (YRAY)
05:07 -34.0734 151.2267 161° South 163 188 1,100 -720 Descending FlightAware ADS-B
05:07 -34.0021 151.2019 344° North 149 171 900 -840 Descending FlightAware ADS-B (YRAY)
05:07 -33.9886 151.1985 348° North 149 171 600 -960 Descending FlightAware ADS-B (YRAY)
05:07 -33.9741 151.1947 348° North 153 176 300 -900 Descending FlightAware ADS-B (YRAY)
05:08 -33.9600 151.1910 348° North 130 150 -900 Descending FlightAware ADS-B (YRAY)